#timestamp,LO_Frequency,Hit 
1497592815.2,286045564.9,N
1497592835.1,286045565.8,N
1497592836.0,286045565.8,N
1497592855.8,286045565.9,N
1497592875.6,286045565.7,N
1497592895.5,286045565.0,N
1497592915.3,286045565.5,N
1497592935.1,286045564.8,N
1497592955.9,286045563.0,N
1497592975.7,286045565.5,N
1497592995.6,286045565.9,N
1497593015.4,286045565.6,N
1497593035.2,286045565.9,N
1497593055.1,286045563.3,N
1497593056.0,286045563.3,N
1497593075.8,286045563.4,N
1497593095.6,286045562.9,N
1497593115.5,286045566.0,N
1497593135.3,286045565.5,N
1497593155.2,286045563.0,N
1497593175.9,286045563.7,N
1497593195.7,286045563.0,N
1497593215.6,286045563.5,N
1497593235.4,286045566.0,N
1497593255.2,286045562.9,N
1497593275.1,286045563.3,N
1497593276.0,286045563.3,N
1497593295.8,286045564.8,N
1497593315.7,286045565.0,N
1497593335.5,286045565.2,N
1497593355.3,286045566.0,N
1497593375.2,286045563.1,N
1497593395.0,286045565.6,N
1497593395.9,286045565.6,N
1497593415.7,286045565.4,N
1497593435.6,286045565.1,N
1497593455.4,286045565.5,N
1497593475.3,286045565.9,N
1497593495.1,286045562.9,N
1497593496.0,286045562.9,N
1497593515.8,286045563.0,N
1497593535.7,286045565.5,N
1497593555.5,286045563.2,N
1497593575.3,286045563.7,N
1497593595.2,286045563.7,N
1497593615.0,286045563.1,N
1497593615.9,286045563.1,N
1497593635.8,286045564.3,N
1497593655.6,286045561.5,N
1497593675.4,286045561.6,N
1497593695.3,286045561.9,N
1497593715.1,286045561.8,N
1497593735.8,286045561.9,N
1497593755.7,286045562.0,N
1497593775.5,286045562.1,N
1497593795.4,286045561.7,N
1497593815.2,286045561.5,N
1497593835.0,286045562.7,N
1497593835.9,286045562.7,N
1497593855.8,286045562.2,N
1497593875.6,286045562.1,N
1497593895.4,286045562.0,N
1497593915.3,286045562.4,N
1497593935.1,286045562.4,N
1497593955.9,286045562.4,N
1497593975.7,286045560.3,N
1497593995.5,286045560.3,N
1497594015.4,286045561.0,N
1497594035.2,286045560.7,N
1497594055.0,286045561.0,N
1497594055.9,286045561.0,N
1497594075.8,286045561.0,N
1497594095.6,286045560.6,N
1497594115.5,286045560.8,N
1497594135.3,286045559.8,N
1497594155.1,286045560.0,N
1497594175.9,286045562.3,N
1497594195.7,286045560.1,N
1497594215.5,286045560.5,N
1497594235.4,286045560.5,N
1497594255.2,286045561.0,N
1497594275.0,286045560.6,N
1497594276.0,286045560.6,N
1497594295.8,286045561.1,N
1497594315.6,286045562.8,N
1497594335.5,286045559.9,N
1497594355.3,286045560.7,N
1497594375.1,286045558.5,N
1497594395.9,286045558.3,N
1497594415.7,286045558.7,N
1497594435.6,286045558.9,N
1497594455.4,286045559.3,N
1497594475.2,286045559.4,N
1497594495.1,286045556.5,N
1497594496.0,286045556.5,N
1497594515.8,286045559.6,N
1497594535.6,286045556.6,N
1497594555.5,286045557.4,N
1497594575.3,286045557.8,N
1497594595.2,286045557.1,N
1497594615.0,286045557.9,N
1497594615.9,286045557.9,N
1497594635.7,286045557.8,N
1497594655.6,286045555.8,N
1497594675.4,286045555.2,N
1497594695.3,286045555.3,N
1497594715.1,286045555.9,N
1497594716.0,286045555.9,N
1497594735.8,286045556.1,N
1497594755.7,286045556.4,N
1497594775.5,286045555.7,N
1497594795.3,286045555.2,N
1497594815.2,286045556.2,N
1497594835.0,286045556.4,N
1497594835.9,286045556.4,N
1497594855.8,286045556.2,N
1497594875.6,286045553.4,N
1497594895.4,286045553.5,N
1497594915.3,286045553.3,N
1497594935.1,286045556.3,N
1497594955.8,286045553.4,N
1497594975.7,286045556.4,N
1497594995.5,286045554.1,N
1497595015.3,286045551.7,N
1497595035.2,286045552.2,N
1497595055.0,286045552.1,N
1497595055.9,286045552.1,N
1497595075.8,286045551.8,N
1497595095.6,286045551.7,N
1497595115.4,286045554.4,N
1497595135.3,286045552.0,N
1497595155.1,286045551.9,N
1497595175.9,286045554.8,N
1497595195.7,286045551.8,N
1497595215.5,286045554.2,N
1497595235.4,286045552.4,N
1497595255.2,286045554.6,N
1497595275.0,286045553.5,N
1497595275.9,286045553.5,N
1497595295.8,286045554.5,N
1497595315.6,286045554.7,N
1497595335.4,286045554.4,N
1497595355.3,286045554.7,N
1497595375.1,286045554.7,N
1497595395.9,286045551.9,N
1497595415.7,286045551.8,N
1497595435.5,286045551.8,N
1497595455.4,286045554.3,N
1497595475.2,286045552.2,N
1497595495.0,286045554.4,N
1497595495.9,286045554.4,N
1497595515.8,286045552.2,N
1497595535.6,286045553.5,N
1497595555.5,286045553.9,N
1497595575.3,286045554.2,N
1497595595.1,286045553.8,N
1497595615.9,286045554.5,N
1497595635.7,286045551.7,N
1497595655.5,286045551.8,N
1497595675.4,286045554.5,N
1497595695.2,286045551.7,N
1497595715.1,286045554.3,N
1497595716.0,286045554.3,N
1497595735.8,286045554.7,N
1497595755.6,286045554.8,N
1497595775.5,286045554.6,N
1497595795.3,286045554.4,N
1497595815.1,286045554.7,N
1497595835.9,286045552.4,N
1497595855.7,286045551.8,N
1497595875.6,286045554.8,N
1497595895.4,286045552.2,N
1497595915.2,286045554.6,N
1497595935.1,286045554.4,N
1497595936.0,286045554.4,N
1497595955.8,286045552.0,N
1497595975.6,286045554.8,N
1497595995.5,286045551.8,N
1497596015.3,286045552.7,N
1497596035.2,286045551.8,N
1497596055.9,286045552.4,N
1497596075.7,286045554.8,N
1497596095.6,286045554.5,N
1497596115.4,286045554.7,N
1497596135.2,286045552.1,N
1497596155.1,286045551.8,N
1497596156.0,286045551.8,N
1497596175.8,286045552.3,N
1497596195.7,286045551.7,N
1497596215.5,286045552.6,N
1497596235.3,286045552.1,N
1497596255.2,286045551.7,N
1497596275.9,286045552.1,N
1497596295.7,286045554.8,N
1497596315.6,286045551.8,N
1497596335.4,286045554.5,N
1497596355.3,286045552.1,N
1497596375.1,286045551.8,N
1497596376.0,286045551.8,N
1497596395.8,286045554.0,N
